Location: Staunton
(38.1490°N, 79.0720°W)
Time: 14:23:41
(UTC-04:00)

ISS - Pass Details

Date: 21 May 2017
Orbit: 402 x 408 km, 51.6° (Epoch: 29 May)

Event Time Altitude Azimuth Distance (km) Brightness Sun altitude
Rises 04:44:48 0° 319° (NW) 2,326 0.0 -13.3°
Reaches altitude 10° 04:47:21 10° 339° (NNW) 1,462 -0.8 -12.9°
Maximum altitude 04:49:42 18° 25° (NNE) 1,071 -0.8 -12.6°
Drops below altitude 10° 04:52:02 10° 71° (ENE) 1,455 0.2 -12.2°
Sets 04:54:34 0° 91° (E) 2,311 0.9 -11.8°
